COMPLETED DISPATCHED CALLS FOR SERVICE

Welcome to the Jacksonville Sheriff’s Office Completed Dispatched Calls for Service webpage. This page displays calls for service made to the Jacksonville Sheriff's Office that have recently been completed. The data on this page is refreshed automatically.

This information is not intended to be used as official crime data. This program does not provide information about all crimes, and excludes specific incidents such as sexual assaults and child abuse.

Disclaimer: The Jacksonville Sheriff's Office makes every effort to produce and publish current and accurate information. No warranties, expressed or implied, are provided for the data herein, its use, or its interpretation. The services provided are for informational purposes only and should not be relied on for any type of legal action.

Last refreshed 9/23 22:38:56

Incident # Dispatched Block Address Signal Call Description  
202100570446 9-23 21:19 1000 MONUMENT RD 2 63 DISPUTE IMPAIRED/INTOXICATED
202100570426 9-23 21:13 2100 WOODSIDE ST 13 SUSPICIOUS PERSON
202100570465 9-23 21:12 1000 OAK ST 64 NOISE COMPLAINT
202100570479 9-23 21:11 BEACH BLVD / ST JOHNS BLUFF RD S 1050 TRAFFIC STOP
202100570476 9-23 21:10 BLANDING BLVD / HARLOW BLVD 13 SUSPICIOUS PERSON
202100570470 9-23 21:08 BEACH BLVD / SANS PAREIL ST 1050 TRAFFIC STOP
202100570466 9-23 21:03 8300 DIX ELLIS TRL 26C CARDIAC AED
202100570464 9-23 21:01 12400 DUNN CREEK RD 12 RECKLESS DRIVER
202100570432 9-23 20:58 JTB / PHILIPS HWY 13 SUSPICIOUS PERSON
202100009609 9-23 20:51 100 U N F DR 16 ROAD OBSTRUCTION
202100570437 9-23 20:48 2200 EDGEWOOD AVE W 4 AUTO CRASH
202100570430 9-23 20:44 BEACH BLVD / ST JOHNS BLUFF RD S 1050 TRAFFIC STOP
202100009608 9-23 20:42 100 U N F DR 19 ANIMAL INVESTIGATION
202100570390 9-23 20:41 3900 SPRING PARK RD 22 DOMESTIC
202100570421 9-23 20:40 8TH/WILCOX 1050 TRAFFIC STOP
202100570412 9-23 20:38 7100 HANSON DR N 1066 CANCEL
202100570415 9-23 20:38 23RD ST W / CHASE AVE 1050 TRAFFIC STOP
202100570404 9-23 20:30 34TH ST W / MONCRIEF RD 1050 TRAFFIC STOP
202100570403 9-23 20:29 KERNAN BLVD EXIT BEACH BLVD RP / BEACH BLVD 1050 TRAFFIC STOP
202100570249 9-23 20:28 3300 DIGNAN ST 22 DOMESTIC
202100570398 9-23 20:27 8200 KONA AVE 64 NOISE COMPLAINT
202100570401 9-23 20:27 BEACH BLVD / STATION CREEK RD 1050 TRAFFIC STOP
202100570397 9-23 20:27 3600 KERNAN BLVD S 2 22 DOMESTIC DISTURBANCE
202100570399 9-23 20:26 GOLFAIR BLVD / STUART ST 1050 TRAFFIC STOP
202100570393 9-23 20:26 9100 RUNNYMEADE RD 26C CARDIAC AED
202100570388 9-23 20:25 FORSYTH ST E / MARKET ST N 96 ASSIST MOTORIST
202100570348 9-23 20:24 1000 21ST ST E 63 DISPUTE
202100570387 9-23 20:24 8100 MORRISTOWN TRL 63 DISPUTE
202100570386 9-23 20:23 5300 WOODCREST RD 27 MENTALLY ILL PERSON
202100570389 9-23 20:23 4200 LOSCO RD 63 DISPUTE
202100570371 9-23 20:22 1500 UNIVERSITY BLVD W 1066 CANCEL
202100570385 9-23 20:19 10100 BAYMEADOWS RD 76 ASSIST OTHER AGENCY
202100570382 9-23 20:16 BENEDICT RD / MEHARRY AVE 1050 TRAFFIC STOP
202100570368 9-23 20:14 CAVENDER DR / CAVENDER CT 64 NOISE COMPLAINT
202100570376 9-23 20:13 5100 NORWOOD AVE 88J ASSAULT JUST OCCURRED
202100570325 9-23 20:13 10500 KEUKA DR 22 DOMESTIC
202100570372 9-23 20:13 10300 MIDTOWN PKWY 9P THEFT IN PROGRESS
202100570374 9-23 20:12 1200 GROTHE ST 73 DRUG INVESTIGATION
202100570357 9-23 20:11 6700 103RD ST 63 DISPUTE
202100570375 9-23 20:10 I95/JTB 1050 TRAFFIC STOP
202100570373 9-23 20:09 24TH ST W / WILSON ST 1050 TRAFFIC STOP
202100570369 9-23 20:06 MAIN ST N / 63RD ST E 1050 TRAFFIC STOP
202100570282 9-23 20:06 1400 HENDRICKS AVE 1066 CANCEL
202100570366 9-23 20:04 SOUTEL DR / NEW KINGS RD 16 ROAD OBSTRUCTION
202100570363 9-23 20:02 38TH ST E / MAIN ST N 1050 TRAFFIC STOP
202192117549 9-23 20:02 8000 POINT MEADOWS DR 86 LOST PROPERTY
202100570353 9-23 20:01 4000 COLLEGE ST 2 63 DISPUTE IMPAIRED/INTOXICATED
202192117548 9-23 20:00 8000 POINT MEADOWS DR 86 LOST PROPERTY
202100570342 9-23 20:00 6900 HUNTINGTON WOODS CIR E 22 DOMESTIC
202100570271 9-23 20:00 700 CHAFFEE RD S 63 DISPUTE
202100570351 9-23 19:59 700 SKYMARKS DR 2 63 DISPUTE IMPAIRED/INTOXICATED
202100570356 9-23 19:59 103RD ST / TAMPICO RD 1050 TRAFFIC STOP
202100570324 9-23 19:58 6600 ARLINGTON RD 63 DISPUTE
202100570303 9-23 19:58 1100 KENDALL TOWN BLVD 13 SUSPICIOUS PERSON
202100570333 9-23 19:58 SALISBURY RD / JTB E OFF RAMP 16 ROAD OBSTRUCTION
202100570219 9-23 19:57 8200 CARAVELLE DR 11 ABANDONED VEHICLE
202100570347 9-23 19:55 SRA1A/HAYWOOD ESTATES 1050 TRAFFIC STOP
202100570343 9-23 19:53 20TH RP / MAIN ST N 1050 TRAFFIC STOP
202100570337 9-23 19:52 8500 GATE PKWY W 64 NOISE COMPLAINT
202100570313 9-23 19:49 6800 WILSON BLVD 63 DISPUTE
202100570336 9-23 19:49 2900 RIBAULT SCENIC DR 63 DISPUTE
202100570225 9-23 19:46 1700 CLEMSON RD 95ID IDENTITY THEFT
202100570309 9-23 19:45 1600 MARGARET ST 63 DISPUTE
202100570316 9-23 19:44 6000 ARGYLE FOREST BLVD 13 SUSPICIOUS PERSON
202100570311 9-23 19:43 9100 NORMANDY BLVD 61 FIGHT
202100570322 9-23 19:41 YELLOW BLUFF RD / CHANDLERS CROSSING DR 13 SUSPICIOUS PERSON
202100570312 9-23 19:41 13800 GOODSON PL 63 DISPUTE
202100570321 9-23 19:39 13000 PRITCHARD RD 96 ASSIST MOTORIST
202100570320 9-23 19:39 ATLANTIC BLVD / LEE RD 1050 TRAFFIC STOP
202100570317 9-23 19:38 BEACH BLVD / ST JOHNS BLUFF RD S 1050 TRAFFIC STOP
202100570305 9-23 19:38 I95 N OFF RAMP / EDGEWOOD AVE W 13 SUSPICIOUS PERSON
202100570295 9-23 19:37 8200 DAMES POINT CROSSING BLVD N 13 SUSPICIOUS PERSON
202100570307 9-23 19:37 1200 MAIN ST N 63 DISPUTE
202100570263 9-23 19:37 10200 ROADWAY DR 2 22 DOMESTIC DISTURBANCE
202100570291 9-23 19:34 8000 103RD ST 63 DISPUTE
202100570255 9-23 19:30 2000 RIVERSIDE AVE 63 DISPUTE
202100570304 9-23 19:29 ARLINGTON XY SERVICE RD / CESERY BLVD 1050 TRAFFIC STOP
202100570301 9-23 19:27 2900 BROWARD 96 ASSIST MOTORIST
202100570280 9-23 19:22 HERSCHEL ST / SAN JUAN AVE 0 13 ARMED SUSPICIOUS PERSON
202100570286 9-23 19:21 5200 CEMETERY RD 73 DRUG INVESTIGATION
202100570227 9-23 19:20 1100 FORSYTH ST W 63 DISPUTE
202100570287 9-23 19:18 2000 DUNSFORD TER 63 DISPUTE
202100570228 9-23 19:18 5300 SEABOARD AVE 63 DISPUTE
202100570285 9-23 19:17 900 MINERAL CREEK DR 13 SUSPICIOUS PERSON
202100570253 9-23 19:17 13200 CITY STATION DR 63 DISPUTE
202100570258 9-23 19:15 LANE AVE S / NORMANDY BLVD 4 AUTO CRASH
202100570275 9-23 19:15 9700 DEER LAKE CT 4 AUTO CRASH
202100570284 9-23 19:14 BAYMEA/PROMINANCE 1050 TRAFFIC STOP
202100570283 9-23 19:14 I95 N OFF RAMP / GOLFAIR BLVD 96 ASSIST MOTORIST
202100570267 9-23 19:14 7700 MCCOWAN DR 12 RECKLESS DRIVER
202100570037 9-23 19:13 13200 CITY SQUARE DR 63 DISPUTE
202100570279 9-23 19:13 7100 HANSON DR N 0 60 SUICIDE THREAT W/WEAPON
202100570179 9-23 19:12 4900 BAYMEADOWS RD 95 FRAUD/FORGED (CHECK, ID, RX)
202100570264 9-23 19:11 PRESLEY DR / BELFORT RD 4 AUTO CRASH
202100570266 9-23 19:10 1400 RIBAULT SCENIC DR 19 ANIMAL INVESTIGATION
202100570201 9-23 19:10 4000 COBALT AVE E 21R BURGLARY RESIDENCE
202100507250 9-23 19:08 9000 IVEY RD 60 SUICIDE OR ATTEMPT
202100570247 9-23 19:07 5800 JAGUAR DR W 63 DISPUTE
202100570269 9-23 19:06 7700 JASPER AVE 63 DISPUTE
202100570251 9-23 19:05 10100 BROOKWOOD FOREST BLVD 22 DOMESTIC
202100570272 9-23 19:05 WILSON BLVD / I295 N OFF RAMP 96 ASSIST MOTORIST
202100570185 9-23 19:05 4200 MONCRIEF RD W 63 DISPUTE
202100570261 9-23 19:04 6600 TROUT RIVER BLVD 22 DOMESTIC
202100570204 9-23 19:02 9700 BEACH BLVD 2 63 DISPUTE IMPAIRED/INTOXICATED
202100570265 9-23 19:01 10300 WOOD DOVE WAY 76 ASSIST OTHER AGENCY
202100570256 9-23 19:01 OLD ST AUGUSTINE RD / I295 S OFF RAMP 96 ASSIST MOTORIST
202100570262 9-23 19:00 1000 AIRPORT RD 13 SUSPICIOUS PERSON
202100570254 9-23 18:59 200 CHARLES AVE 1066 CANCEL
202100570156 9-23 18:58 100 BERNARD RD 22 DOMESTIC
202100570245 9-23 18:58 6700 WILSON BLVD 54 ILLEGALLY PARKED CAR
202100570244 9-23 18:57 4500 BAYMEADOWS RD 54 ILLEGALLY PARKED CAR
202100570222 9-23 18:56 3300 DELLWOOD AVE 63 DISPUTE
202100570177 9-23 18:55 2300 EDGEWOOD AVE W 2 63 DISPUTE IMPAIRED/INTOXICATED
202100570176 9-23 18:53 MUSTANG RD / PHILIPS HWY 4 AUTO CRASH
202100570246 9-23 18:53 I10 W OFF RAMP / LANE AVE S 12 RECKLESS DRIVER
202100570206 9-23 18:53 8000 MERRILL RD 4 AUTO CRASH
202100570211 9-23 18:53 100 COTTAGE AVE 3 HIT AND RUN CRASH
202100570235 9-23 18:52 2700 CHELSEA COVE DR 22 DOMESTIC
202100570240 9-23 18:52 1000 GRUNTHAL ST 64 NOISE COMPLAINT
202100570231 9-23 18:51 11100 CASTLEMAIN CIR W 95ID IDENTITY THEFT
202100570229 9-23 18:50 6300 GREENLAND RD 1066 CANCEL
202100570236 9-23 18:47 7000 PHILIPS HWY 13 SUSPICIOUS PERSON
202100570007 9-23 18:47 7900 NORMANDY BLVD 10 VEHICLE THEFT
202100570210 9-23 18:47 8200 SOUTHSIDE BLVD 3 HIT AND RUN CRASH
202100570239 9-23 18:46 400 CENTURY 21 DR 50 FOUND/ABANDONED PROPERTY
202100570237 9-23 18:45 GRUNTHAL ST / HURST PL 1050 TRAFFIC STOP
202100570232 9-23 18:45 700 OCEAN ST N 9 THEFT
202100570230 9-23 18:42 TROUT RIVER BLVD / MONCRIEF-DINSMORE RD 96 ASSIST MOTORIST
202100570131 9-23 18:42 8700 NEWTON RD 63 DISPUTE
202100570220 9-23 18:42 3400 EVE DR E 63 DISPUTE
202100570224 9-23 18:40 1500 FERNDALE PL 1066 CANCEL
202100570135 9-23 18:40 BEAVER ST W / HOGAN ST N 3 HIT AND RUN CRASH
202100570216 9-23 18:40 9400 ATLANTIC BLVD 63 DISPUTE
202100570194 9-23 18:39 1200 ELLIS RD S 63 DISPUTE
202100570212 9-23 18:39 1700 10TH ST W 64 NOISE COMPLAINT
202100570106 9-23 18:37 1900 JAMMES RD 22 DOMESTIC
202100570174 9-23 18:36 800 BROWARD RD 2288 DOMESTIC DISPUTE WITH/ASSAULT
202100569994 9-23 18:35 1500 LANE AVE S 63 DISPUTE
202100570184 9-23 18:33 REDSTONE DR / 103RD ST 12 RECKLESS DRIVER
202100570189 9-23 18:32 10900 BAYMEADOWS RD 63 DISPUTE
202100570093 9-23 18:32 HUNT ST / ICE AVE 10R VEHICLE THEFT RECOVERY
202100570154 9-23 18:31 WILSON BLVD / OLD MIDDLEBURG RD N 4 AUTO CRASH
202100570167 9-23 18:31 10500 SAN JOSE BLVD 68 CON GAME/FLIM FLAM
202100570191 9-23 18:31 700 CHAFFEE RD S 63 DISPUTE
202100570218 9-23 18:27 MLK/MYRTLE 1050 TRAFFIC STOP
202100570161 9-23 18:27 4400 WOODMERE ST 63 DISPUTE
202100570214 9-23 18:26 800 ALDERMAN RD 60 SUICIDE OR ATTEMPT
202100570208 9-23 18:23 LANE AVE N / BEAVER ST W 22 DOMESTIC
202100570129 9-23 18:21 I295 S OFF RAMP / MERRILL RD 4 AUTO CRASH
202100570205 9-23 18:21 FAIR/24TH 1050 TRAFFIC STOP
202100570164 9-23 18:19 900 SPEARING ST 37 UNVERIFIED 911 CALL
202100570158 9-23 18:18 BEACH BLVD / HODGES BLVD 4 AUTO CRASH
202100570199 9-23 18:18 BEAVER ST W / EDGEWOOD AVE N 4 AUTO CRASH
202100570070 9-23 18:18 1000 FULLER LN 2288 DOMESTIC DISPUTE WITH/ASSAULT
202100570173 9-23 18:17 FOURAKER RD / LOURDES DR N 4 53 TRAFFIC CRASH PERSON INJURED
202100570092 9-23 18:15 BLANDING BLVD / COLLINS RD 4 AUTO CRASH
202100570195 9-23 18:14 BESSIE CIR E / 33RD ST W 1050 TRAFFIC STOP
202100570186 9-23 18:13 6000 DAVON ST 63 DISPUTE
202100570192 9-23 18:13 8200 BAYMEADOWS RD 63 DISPUTE
202100570165 9-23 18:12 4300 GENOA AVE 63 DISPUTE
202100570170 9-23 18:10 2000 DUNSFORD TER 63 DISPUTE
202100570125 9-23 18:07 3700 BLANDING BLVD 22 DOMESTIC
202100570166 9-23 18:07 1900 LAKEWOOD CIR S 76 ASSIST OTHER AGENCY
202100570153 9-23 18:06 4900 BELFORT RD 63 DISPUTE
202100570134 9-23 18:05 8000 SUN VALLEY DR 22 DOMESTIC
202100569785 9-23 18:04 COLLINS RD / RAMPART RD 91 TRAFFIC LIGHT/RR CROSSING MALFUNCTION
202100569763 9-23 18:04 ARLINGTON XY SERVICE RD / CESERY BLVD 91 TRAFFIC LIGHT/RR CROSSING MALFUNCTION
202100569684 9-23 18:03 EMERSON ST / SPRING PARK RD 91 TRAFFIC LIGHT/RR CROSSING MALFUNCTION
202100570159 9-23 18:02 I95 N OFF RAMP / SOUTHSIDE I95N EXIT RP 13 SUSPICIOUS PERSON
202100570096 9-23 18:02 1000 WESTDALE DR 4 AUTO CRASH
202100570068 9-23 17:56 7800 HARE AVE 73 DRUG INVESTIGATION
202100570145 9-23 17:56 MILL CREEK RD / BERRY AVE 3 HIT AND RUN CRASH
202100570060 9-23 17:54 2900 RIBAULT SCENIC DR 63 DISPUTE
202100570110 9-23 17:53 FORSYTH ST W / BROAD ST N 4 AUTO CRASH
202100570150 9-23 17:53 I10 W OFF RAMP / CECIL COMMERCE CENTER PKWY 13 SUSPICIOUS PERSON
202100570149 9-23 17:53 MAIN ST N / 20TH RP 16 ROAD OBSTRUCTION
202100570160 9-23 17:53 10500 LEM TURNER RD 13 SUSPICIOUS PERSON
202100569777 9-23 17:53 1000 LAWRENCE ST 64 NOISE COMPLAINT
202100570019 9-23 17:52 1500 24TH ST E 63 DISPUTE
202100570157 9-23 17:52 ARLINGTON RD N / ARLINGTON XY SERVICE RD 68 CON GAME/FLIM FLAM
202100570109 9-23 17:51 MARKET ST N / 15TH ST E 4 AUTO CRASH
202100570155 9-23 17:50 COMMERCE CENTER DR 38 TRAFFIC ASSIGNMENT
202182017950 9-23 17:50 BEACH AVE / 7TH ST 19 ANIMAL INVESTIGATION
202100570132 9-23 17:48 13400 BEACH BLVD 63 DISPUTE
202100570142 9-23 17:47 SOUTHSIDE BLVD / I95 S ON RAMP 96 ASSIST MOTORIST
202100570148 9-23 17:47 12700 GINGER DR 63 DISPUTE
202100570047 9-23 17:46 4600 NORWOOD AVE 9T THEFT (TELESERVE)
202100570143 9-23 17:44 7700 PIKES PEAK DR 8 27 MISSING MENTALLY ILL
202100570115 9-23 17:44 11600 CAMDEN RD 88 ASSAULT
202100570140 9-23 17:44 4400 WINDERGATE CT 9 THEFT
202100570118 9-23 17:44 2600 PARK ST 13 SUSPICIOUS PERSON
202100570139 9-23 17:42 1700 MARKET ST N 2 IMPAIRED/INTOXICATED
202100570111 9-23 17:41 10400 NORMANDY BLVD 63 DISPUTE
202100570138 9-23 17:41 KERNAN BLVD N / SCOTTS COVE TRL 4 AUTO CRASH
202100570127 9-23 17:35 10900 BEACH BLVD 4 AUTO CRASH
202100570126 9-23 17:35 4500 JADE DR W 60 SUICIDE OR ATTEMPT
202100570123 9-23 17:33 RIVERSIDE/LILA 1050 TRAFFIC STOP
202100570121 9-23 17:33 5200 118TH ST 11 ABANDONED VEHICLE
202100570104 9-23 17:32 9900 SIBBALD RD 22 DOMESTIC
202100570048 9-23 17:32 KERNAN BLVD N / MCCORMICK RD 56 JUVENILE COMPLAINT
202100570119 9-23 17:32 700 MARKET ST N 73 DRUG INVESTIGATION
202182017948 9-23 17:31 800 OCEAN BLVD 56 JUVENILE COMPLAINT
202100570054 9-23 17:30 2800 CHELSEA COVE DR 1066 CANCEL
202100570117 9-23 17:29 700 LIBERTY ST N 73 DRUG INVESTIGATION
202100570082 9-23 17:26 STATE ST W / BROAD ST N 63 DISPUTE
202100569961 9-23 17:25 5300 RAMONA BLVD 63 DISPUTE
202100570090 9-23 17:24 1000 AIRPORT RD 63 DISPUTE
202100570085 9-23 17:24 1100 FOUNTAIN RD 95IDT IDENTITY THEFT TELESERVE
202100570091 9-23 17:23 6700 103RD ST 4 AUTO CRASH
202182017947 9-23 17:23 100 12TH ST 54 ILLEGALLY PARKED CAR
202100570029 9-23 17:23 1500 15TH ST W 63 DISPUTE
202100570105 9-23 17:22 500 8TH ST W 2 IMPAIRED/INTOXICATED
202100570103 9-23 17:22 APPROX LOC: 4500 WABASH AVE 12 RECKLESS DRIVER
202100009605 9-23 17:21 4800 FIRST COAST TECH PKWY 96 ASSIST MOTORIST
202100570100 9-23 17:20 4400 HIAWATHA ST 38 TRAFFIC ASSIGNMENT
202100570097 9-23 17:20 12900 HAVERFORD RD N 63 DISPUTE
202100570098 9-23 17:19 35TH ST W / WILSON ST 13 SUSPICIOUS PERSON
202100570034 9-23 17:18 2200 KERNAN BLVD S 4 AUTO CRASH
202100570044 9-23 17:17 E I10EXIT S CHAF RP / CHAFFEE RD S 96 ASSIST MOTORIST
202100570057 9-23 17:13 7600 HARE AVE 13 SUSPICIOUS PERSON
202100570084 9-23 17:12 8300 CHASON RD W 63 DISPUTE
202100570086 9-23 17:12 ROOSEVELT EXPY / RANDALL ST 4 AUTO CRASH
202100570061 9-23 17:12 8400 GATE PKWY W 63 DISPUTE
202100570081 9-23 17:12 I295 S ON RAMP / MONUMENT RD 4 AUTO CRASH
202100569943 9-23 17:11 LAMSON ST / EATON AVE 54 ILLEGALLY PARKED CAR
202100570077 9-23 17:11 800 BROWARD RD 1066 CANCEL
202182017945 9-23 17:09 PLAZA / SAILFISH DR 1050 TRAFFIC STOP
202100570050 9-23 17:08 ATLANTIC BLVD / SAN PABLO RD N 22 DOMESTIC
202100569968 9-23 17:07 1700 ANNISTON RD 9 THEFT
202100570063 9-23 17:05 1000 OTIS RD 16 ROAD OBSTRUCTION
202100569905 9-23 17:05 1600 17TH ST W 63 DISPUTE
202100570074 9-23 17:04 CRANE AVE / SAPELO RD 1050 TRAFFIC STOP
202100569992 9-23 17:03 4100 OLD MIDDLEBURG RD N 2288 DOMESTIC DISPUTE WITH/ASSAULT
202100570066 9-23 17:01 700 LIBERTY ST N 73 DRUG INVESTIGATION
202100570065 9-23 17:01 700 LIBERTY ST N 73 DRUG INVESTIGATION
202100569826 9-23 17:01 400 CENTURY 21 DR 21R BURGLARY RESIDENCE
202100570058 9-23 17:01 LIBERTY ST N / UNION ST E 4 53 TRAFFIC CRASH PERSON INJURED
202100570062 9-23 17:01 1600 SAN PABLO RD S 76 ASSIST OTHER AGENCY
202100570059 9-23 17:00 MERRILL RD / PROVIDENT RD 1050 TRAFFIC STOP
202100569939 9-23 16:58 11400 OLD ST AUGUSTINE RD 1066 CANCEL
202100569933 9-23 16:57 6200 OGDEN RD 86 LOST PROPERTY
202100569981 9-23 16:56 5500 MANFIELDS PL 95ID IDENTITY THEFT
202100570052 9-23 16:56 4200 PHILIPS HWY 13 SUSPICIOUS PERSON
202100569984 9-23 16:54 7700 JASPER AVE 63 DISPUTE
202100570046 9-23 16:53 700 LIBERTY ST N 73 DRUG INVESTIGATION
202100570045 9-23 16:53 MON/WES 1050 TRAFFIC STOP
202100569955 9-23 16:53 1800 KINGS AVE 63 DISPUTE
202100569969 9-23 16:53 6200 LAKE TAHOE DR 22 DOMESTIC
202100569768 9-23 16:52 2800 MYRTLE AVE N 63 DISPUTE
202100570001 9-23 16:52 10200 NORMANDY BLVD 63 DISPUTE
202100570043 9-23 16:51 700 LIBERTY ST N 73 DRUG INVESTIGATION
202100570015 9-23 16:51 4100 HECKSCHER DR 4 AUTO CRASH
202100570042 9-23 16:51 BEACH BLVD / HODGES BLVD 13 SUSPICIOUS PERSON
202100570041 9-23 16:50 12500 GREEN MEADOW DR 26C CARDIAC AED
202100570040 9-23 16:50 700 LIBERTY ST N 73 DRUG INVESTIGATION
202100570009 9-23 16:50 7100 MERRILL RD 3 HIT AND RUN CRASH
202100569990 9-23 16:49 I295 S OFF RAMP / BEACH BLVD 68 CON GAME/FLIM FLAM
202100570039 9-23 16:49 500 8TH ST W 2 IMPAIRED/INTOXICATED
202100570020 9-23 16:49 100 MATHEWS BRG W 16 ROAD OBSTRUCTION
202100570036 9-23 16:48 1000 LIBERTY ST N 2 IMPAIRED/INTOXICATED
202100570035 9-23 16:48 I10/HAMM 1050 TRAFFIC STOP
202100569903 9-23 16:48 6400 ARGYLE FOREST BLVD 1066 CANCEL
202100570033 9-23 16:47 MLK EXIT HAINES ST RP / HAINES ST 4 53 TRAFFIC CRASH PERSON INJURED
202100570018 9-23 16:47 6700 COLLINS RD 3 HIT AND RUN CRASH
202100570030 9-23 16:47 6100 DEEPWOOD DR E 38 TRAFFIC ASSIGNMENT
202100570028 9-23 16:46 MON/WOOD 1050 TRAFFIC STOP
202100570027 9-23 16:46 6800 ARGYLE FOREST BLVD 12 RECKLESS DRIVER
202100570026 9-23 16:46 OLD ST AUGUSTINE RD 38 TRAFFIC ASSIGNMENT
202100570021 9-23 16:46 ARGYLE FOREST BLVD / BLANDING BLVD 4 AUTO CRASH
202100570017 9-23 16:46 100 FULLER WARREN BRG S 16 ROAD OBSTRUCTION
202100570025 9-23 16:45 MLK EXIT HAINES ST RP / HAINES ST 38 TRAFFIC ASSIGNMENT
202100570024 9-23 16:45 7000 CRANE AVE 1050 TRAFFIC STOP
202100569915 9-23 16:45 10000 GATE PKWY N 95IDT IDENTITY THEFT TELESERVE
202100570022 9-23 16:44 MONUMENT RD / LEE RD 73 DRUG INVESTIGATION
202100570006 9-23 16:43 100 BERNARD RD 63 DISPUTE
202100009604 9-23 16:42 100 U N F DR 96 ASSIST MOTORIST
202100009603 9-23 16:41 ECO RD / U N F DR 38 TRAFFIC ASSIGNMENT
202100569957 9-23 16:40 13700 BEACH BLVD 86T LOST PROPERTY (TELESERVE)
202182017942 9-23 16:38 100 12TH ST 54 ILLEGALLY PARKED CAR
202100570011 9-23 16:37 1600 45TH ST W 21RP BURGLARY RESIDENCE IN PROGRESS
202100569914 9-23 16:36 7900 MERRILL RD 21C BURGLARY CONVEYANCE
202100569996 9-23 16:36 NEW BERLIN RD / ALTA DR 4 AUTO CRASH
202100569920 9-23 16:35 11000 OLD ST AUGUSTINE RD 2288 DOMESTIC DISPUTE WITH/ASSAULT
202100569986 9-23 16:35 5200 NORWOOD AVE 79 OBSCENE / THREAT CALL OR LETTER
202100569941 9-23 16:34 1700 OLD MIDDLEBURG RD N 14CJ VANDALISM CONVEYANCE JUST OCCURRED
202100569993 9-23 16:33 TIMUQUANA RD / SEABOARD AVE 16 ROAD OBSTRUCTION
202100570002 9-23 16:33 MONCRIEF RD / GOLFAIR BLVD 1050 TRAFFIC STOP
202100569964 9-23 16:33 BOULEVARD / 11TH ST W 4 AUTO CRASH
202100570000 9-23 16:33 BEACH BLVD / KERNAN BLVD EXIT KERNAN BLVD RP 96 ASSIST MOTORIST
202100569972 9-23 16:32 PHILIPS EXIT SR 9B RP / SR9BS EXIT PHILIPS RP 4 AUTO CRASH
202100569732 9-23 16:31 1800 9TH ST W 22 DOMESTIC
202100569954 9-23 16:31 13200 CITY SQUARE DR 21C BURGLARY CONVEYANCE
202100569982 9-23 16:31 4500 RIVER CITY DR 4 AUTO CRASH
202100569987 9-23 16:29 900 BRIDIER ST 8 MISSING PERSON
202100569918 9-23 16:29 1000 TOLKIEN LN 3 HIT AND RUN CRASH
202100569974 9-23 16:29 200 48TH ST E 27 MENTALLY ILL PERSON
202100569966 9-23 16:28 6800 NORMANDY BLVD 9P THEFT IN PROGRESS
202100569985 9-23 16:25 6800 CRANE AVE 1050 TRAFFIC STOP
202100569979 9-23 16:23 8600 BAYMEADOWS RD 2288 DOMESTIC DISPUTE WITH/ASSAULT
202100569977 9-23 16:23 10500 COLD STORAGE RD 76 ASSIST OTHER AGENCY
202100569975 9-23 16:22 ARGYLE FOREST BLVD / WESTPORT RD 16 ROAD OBSTRUCTION
202100569978 9-23 16:21 6800 103RD 13 SUSPICIOUS PERSON
202100569911 9-23 16:21 5600 HOLLY BELL DR 3 HIT AND RUN CRASH
202100569973 9-23 16:20 US301 HWY S / I10 E OFF RAMP 4 AUTO CRASH
202100569863 9-23 16:19 6800 PLAYPARK TRL W 22 DOMESTIC
202100569971 9-23 16:19 MERRILL RD / LANSDOWNE DR 1050 TRAFFIC STOP
202100569931 9-23 16:19 2300 MINDANAO DR 9T THEFT (TELESERVE)
202100569967 9-23 16:18 7500 CENTURION PKWY 4 AUTO CRASH
202100569963 9-23 16:16 BROADWAY AVE / EDGEWOOD AVE N 1050 TRAFFIC STOP
202100569958 9-23 16:15 2800 SAND CASTLE LN 76 ASSIST OTHER AGENCY
202100569959 9-23 16:13 7000 CRANE AVE 1050 TRAFFIC STOP
202100569948 9-23 16:13 1100 CATALINA RD W 16 ROAD OBSTRUCTION
202100569956 9-23 16:13 6000 FT CAROLINE RD 1066 CANCEL
202100569838 9-23 16:12 4100 HECKSCHER DR 4 AUTO CRASH
202100569858 9-23 16:11 11200 BEACH BLVD 9T THEFT (TELESERVE)
202100569950 9-23 16:10 200 DUVAL STATION RD 4 53 TRAFFIC CRASH PERSON INJURED
202100569951 9-23 16:10 7000 MERRILL RD 38 TRAFFIC ASSIGNMENT
202100569949 9-23 16:09 LEM TURNER RD / I295 N OFF RAMP 96 ASSIST MOTORIST
202100569928 9-23 16:08 BEACH BLVD / LANTANA LAKES DR 4 AUTO CRASH
202100569944 9-23 16:08 11500 HARTS RD 3 HIT AND RUN CRASH
202100569945 9-23 16:08 4200 PHILIPS HWY 5388 ASSAULT INVOLVING INJURY
202100569877 9-23 16:07 5500 PLAYA WAY 73 DRUG INVESTIGATION
202100569942 9-23 16:07 12100 LEM TURNER RD 9 THEFT
202100569916 9-23 16:07 TAR KILN RD / FIELD BLUFF RD 4 AUTO CRASH
202182017939 9-23 16:05 100 DUTTON ISLAND RD W 1050 TRAFFIC STOP
202100569932 9-23 16:05 7700 PARADISE ISLAND BLVD 21R BURGLARY RESIDENCE
202100569938 9-23 16:03 6800 ARGYLE FOREST BLVD 12 RECKLESS DRIVER
202100569908 9-23 16:03 7100 OLD KINGS RD S 9T THEFT (TELESERVE)
202100569922 9-23 16:03 8000 103RD ST 61 FIGHT
202100569930 9-23 16:03 1100 FORSYTH ST W 63 DISPUTE
202100569934 9-23 16:01 12500 AYRSHIRE ST E 3 HIT AND RUN CRASH
202192117541 9-23 16:00 7000 MELVIN RD 9 THEFT
202100569871 9-23 15:59 11900 ATLANTIC BLVD 22 DOMESTIC
202100569902 9-23 15:57 18TH ST W / DANSON ST 16 ROAD OBSTRUCTION
202100569929 9-23 15:57 13100 MAIN ST N 63 DISPUTE
202100569861 9-23 15:56 9500 ARLINGTON EXPY 63 DISPUTE
202100569882 9-23 15:55 1200 LUFFNESS DR 95ID IDENTITY THEFT
202100569921 9-23 15:55 I95 S OFF RAMP / MARTIN LUTHER KING JR PKWY 4 53 TRAFFIC CRASH PERSON INJURED
202100569909 9-23 15:54 13600 ATLANTIC BLVD 12 RECKLESS DRIVER
202100569919 9-23 15:53 8200 DIX ELLIS TRL 76 ASSIST OTHER AGENCY
202100569913 9-23 15:53 2800 FOREST MILL LN 27 MENTALLY ILL PERSON
202100009601 9-23 15:53 100 U N F DR 50 FOUND/ABANDONED PROPERTY
202100569917 9-23 15:52 4800 DIGN 4 AUTO CRASH
202100569872 9-23 15:51 500 BAY ST E 76 ASSIST OTHER AGENCY
202100569912 9-23 15:51 600 ESTES RD 4 AUTO CRASH
202100569895 9-23 15:49 100 BUCKMAN BRG N 16 ROAD OBSTRUCTION
202100569883 9-23 15:48 CHAUNY RD / HODGES BLVD 16 ROAD OBSTRUCTION
202100569906 9-23 15:48 4400 LOVELAND PASS DR E 1066 CANCEL
202100569904 9-23 15:48 3900 HUNTERS LAKE CIR W 88 ASSAULT
202100569751 9-23 15:47 3100 SUNNYBROOK CT 64 NOISE COMPLAINT
202100569837 9-23 15:46 2900 SPRING PARK RD 86T LOST PROPERTY (TELESERVE)
202100569855 9-23 15:46 1600 17TH ST W 63 DISPUTE
202100569899 9-23 15:45 10000 FT CAROLINE RD 1050 TRAFFIC STOP
202100569898 9-23 15:45 6800 ARGYLE FOREST BLVD 12 RECKLESS DRIVER
202100569860 9-23 15:44 9500 ARLINGTON EXPY 1066 CANCEL
202100569885 9-23 15:44 1800 KINGS AVE 9 THEFT
202100569892 9-23 15:44 6000 ARGYLE FOREST BLVD 3 HIT AND RUN CRASH
202100569313 9-23 15:43 1100 EDGEWOOD AVE S 87 DAMAGED PROPERTY
202100569456 9-23 15:42 I295 N OFF RAMP / 103RD ST 4 AUTO CRASH
202100569363 9-23 15:42 I295 S OFF RAMP / BLANDING BLVD 4 AUTO CRASH
202100569566 9-23 15:42 10000 GATE PKWY N 95IDT IDENTITY THEFT TELESERVE
202100569886 9-23 15:42 RIVERSIDE AVE / KING ST 1066 CANCEL
202100569857 9-23 15:42 2300 PARK ST 13 SUSPICIOUS PERSON
202100569821 9-23 15:41 7700 JASPER AVE 63 DISPUTE
202100569880 9-23 15:40 1300 14TH ST W 76 ASSIST OTHER AGENCY
202100569884 9-23 15:40 4300 UNIVERSITY BLVD S 10R VEHICLE THEFT RECOVERY
202100569878 9-23 15:38 7800 BAYMEADOWS WAY 63 DISPUTE
202100569876 9-23 15:35 8500 BAYCENTER RD 63 DISPUTE
202100569854 9-23 15:34 2000 EVERGREEN AVE 0 63 ARMED DISPUTE
202100569809 9-23 15:33 11200 LAMB TAIL LN 63 DISPUTE
202100569867 9-23 15:33 COLLINS RD / RAMPART RD 38 TRAFFIC ASSIGNMENT
202182017936 9-23 15:31 900 MAIN ST 73 DRUG INVESTIGATION
202100569865 9-23 15:30 9501ARLI 1050 TRAFFIC STOP
202100569806 9-23 15:30 4900 BELFORT RD 63 DISPUTE
202100569832 9-23 15:29 100 TALLULAH AVE 22 DOMESTIC
202100569856 9-23 15:27 2900 LENOX 1050 TRAFFIC STOP
202100569844 9-23 15:27 STATE ST W / CLAY ST 4 AUTO CRASH
202100569810 9-23 15:27 11800 ALDEN RD 22 DOMESTIC
202100569847 9-23 15:27 3500 BEACH BLVD 88 ASSAULT
202100569693 9-23 15:26 8700 PERIMETER PARK BLVD 63 DISPUTE
202100569760 9-23 15:26 8700 SOUTHSIDE BLVD 50 FOUND/ABANDONED PROPERTY
202100569852 9-23 15:25 4400 LOVELAND PASS DR W 60 SUICIDE OR ATTEMPT
202100569849 9-23 15:24 9000 MARLEE RD 38 TRAFFIC ASSIGNMENT
202100569790 9-23 15:23 7900 ATLANTIC BLVD 56 JUVENILE COMPLAINT
202100569782 9-23 15:22 12100 LEM TURNER RD 86T LOST PROPERTY (TELESERVE)
202100569754 9-23 15:22 10000 SKINNER LAKE DR 63 DISPUTE
202100569735 9-23 15:21 6000 GREENLAND RD 3 HIT AND RUN CRASH
202100569843 9-23 15:21 SOUTHSIDE BLVD / PERIMETER PARK BLVD 1050 TRAFFIC STOP
202100569767 9-23 15:18 9300 ATLANTIC BLVD 4 AUTO CRASH
202100569779 9-23 15:18 4100 CLEARBROOK COVE RD 86 LOST PROPERTY
202100569801 9-23 15:17 4400 ST JOHNS AVE 63 DISPUTE
202100569831 9-23 15:16 5300 NEW KINGS RD 5388 ASSAULT INVOLVING INJURY
202100569827 9-23 15:16 NORMANDY BLVD / LANE AVE S 4 AUTO CRASH
202100569834 9-23 15:16 ARLINGTON EXPY / ATLANTIC BLVD 1050 TRAFFIC STOP
202100569686 9-23 15:16 9100 SOUTHSIDE BLVD 68 CON GAME/FLIM FLAM
202100569816 9-23 15:14 100 ADAMS ST W 16 ROAD OBSTRUCTION
202100569787 9-23 15:14 BLANDING BLVD / 105TH ST 13 SUSPICIOUS PERSON
202100569819 9-23 15:12 LANE AVE S / RAMONA BLVD 4 AUTO CRASH
202100569762 9-23 15:11 4800 ATLANTIC BLVD 21R BURGLARY RESIDENCE
202100569812 9-23 15:10 MCDUFF AVE S / LENOX AVE 3 HIT AND RUN CRASH
202192117537 9-23 15:09 HARTSFIELD RD / ABBEYFIELD DR 16 ROAD OBSTRUCTION
202100569798 9-23 15:09 4800 DIGNAN ST 4 AUTO CRASH
202100569805 9-23 15:08 8800 103RD ST 4 AUTO CRASH
202192117536 9-23 15:07 EDGEWOOD AVE S / DIGNAN ST 4 AUTO CRASH
202100569772 9-23 15:07 1600 EL PRADO RD 22 DOMESTIC
202100569430 9-23 15:07 KINGS RD / WHITNER ST 63 DISPUTE
202100569789 9-23 15:07 3400 SALAND WAY 1066 CANCEL
202100569799 9-23 15:06 5700 LENOX AVE 63 DISPUTE
202100569774 9-23 15:04 10100 NORMANDY BLVD 63 DISPUTE
202100569791 9-23 15:04 500 OCEAN ST N 4 AUTO CRASH
202100569797 9-23 15:03 JULINGTON CREEK 38 TRAFFIC ASSIGNMENT
202100569795 9-23 15:03 BEACH/HUFFMAN 1 IMPAIRED/DRUNK DRIVER
202100569689 9-23 15:03 9800 HUTCHINSON PARK DR 63 DISPUTE
202100569744 9-23 15:03 10500 SAN JOSE BLVD 68 CON GAME/FLIM FLAM
202100569793 9-23 15:02 AIRPORT CENTER DR / MAX LEGGETT PKWY 96 ASSIST MOTORIST
202100569792 9-23 15:02 2800 WEBSTER 1050 TRAFFIC STOP
202100569733 9-23 15:02 4800 GREENLAND RD 4 AUTO CRASH
202100569600 9-23 14:58 2100 DUNSFORD TER 63 DISPUTE
202100569775 9-23 14:57 WINTON DR / VAN GUNDY RD 61 FIGHT
202100569365 9-23 14:57 1900 ELLA ST 22 DOMESTIC
202100569739 9-23 14:57 6600 BENNETT CREEK DR 56 JUVENILE COMPLAINT
202100569766 9-23 14:56 1100 21ST ST W 86 LOST PROPERTY
202192117511 9-23 14:55 7400 WILSON BLVD 63 DISPUTE
202100569758 9-23 14:54 9700 BEACH BLVD 63 DISPUTE
202100569776 9-23 14:53 MCCORMICK RD 38 TRAFFIC ASSIGNMENT
202100569770 9-23 14:51 12100 ALADDIN RD 4 53 TRAFFIC CRASH PERSON INJURED
202182017934 9-23 14:50 4TH ST / SHERRY DR 38 TRAFFIC ASSIGNMENT
202100569723 9-23 14:49 6000 BEACH BLVD 3 HIT AND RUN CRASH
202100569742 9-23 14:49 10600 LEM TURNER RD 9 THEFT
202100569764 9-23 14:47 6800 W 103RD ST 13 SUSPICIOUS PERSON
202100569740 9-23 14:45 9500 PRINCETON SQUARE BLVD S 63 DISPUTE
202100569749 9-23 14:44 800 DUNN AVE 63 DISPUTE
202100569646 9-23 14:44 11800 FAVAL DRIVE 64 NOISE COMPLAINT
202182017933 9-23 14:43 800 SEMINOLE RD 76 ASSIST OTHER AGENCY
202100569745 9-23 14:43 4600 WRICO DR 22 DOMESTIC
202100569756 9-23 14:42 5300 FIRESTONE 1050 TRAFFIC STOP
202100569755 9-23 14:41 I295 S OFF RAMP / WILSON BLVD 12 RECKLESS DRIVER
202182017932 9-23 14:40 400 ATLANTIC BLVD 3 HIT AND RUN CRASH
202100569683 9-23 14:40 9800 ATLANTIC BLVD 9 THEFT
202100569752 9-23 14:39 I95 N OFF RAMP / SOUTHSIDE I95N EXIT RP 16 ROAD OBSTRUCTION
202100569738 9-23 14:39 7100 MERRILL RD 4 AUTO CRASH
202100569748 9-23 14:37 FOURAKER RD / WILSON BLVD 1050 TRAFFIC STOP
202100569679 9-23 14:36 8000 103RD ST 14C VANDALISM CONVEYANCE
202100569339 9-23 14:35 I10 E OFF RAMP / LANE AVE S 16 ROAD OBSTRUCTION
202100569331 9-23 14:35 2000 13TH ST W 9 THEFT
202100569743 9-23 14:34 BEAVER ST W / ST CLAIR ST 76 ASSIST OTHER AGENCY
202100569103 9-23 14:34 1700 10TH ST W 64 NOISE COMPLAINT
202100569647 9-23 14:34 6500 PRITCHARD RD 37 UNVERIFIED 911 CALL
202100569731 9-23 14:32 700 UNION ST E 14C VANDALISM CONVEYANCE
202100569736 9-23 14:32 1000 WATER ST 0 63 ARMED DISPUTE
202100569730 9-23 14:32 1100 LEGAY AVE 4 AUTO CRASH
202100569737 9-23 14:31 ROSETTA RD / HALSEMA RD S 4 AUTO CRASH
202100569687 9-23 14:30 1600 14TH ST W 27 MENTALLY ILL PERSON
202100569734 9-23 14:29 600 SOUTHSIDE CONNECTOR BLVD 38 TRAFFIC ASSIGNMENT
202182017931 9-23 14:28 4TH ST / SHERRY DR 38 TRAFFIC ASSIGNMENT
202100569726 9-23 14:27 10600 HORNETS NEST RD 38 TRAFFIC ASSIGNMENT
202100569714 9-23 14:27 10300 ATLANTIC BLVD 50 FOUND/ABANDONED PROPERTY
202100569522 9-23 14:25 I95 N OFF RAMP / MAX LEGGETT PKWY 16 ROAD OBSTRUCTION
202100569529 9-23 14:22 6400 POWERS AVE 9 THEFT
202100569550 9-23 14:22 4400 TOUCHTON RD E 21C BURGLARY CONVEYANCE
202100569695 9-23 14:22 I95 N OFF RAMP / SOUTHSIDE I95N EXIT RP 96 ASSIST MOTORIST
202100569712 9-23 14:21 2300 JERUSALEM ST 11 ABANDONED VEHICLE
202192117530 9-23 14:21 3200 NORMAN E THAGARD BLVD 38 TRAFFIC ASSIGNMENT
202100569711 9-23 14:19 5800 NEW KINGS RD 12 RECKLESS DRIVER
202100569705 9-23 14:19 PRICE ST / SPRUCE ST 4 AUTO CRASH
202100569704 9-23 14:18 5400 MAIN ST N 63 DISPUTE
202100569703 9-23 14:16 2200 EDGEWOOD AVE W 12 RECKLESS DRIVER
202100569694 9-23 14:16 4600 TOWN CROSSING DR 4 AUTO CRASH
202100569701 9-23 14:16 500 WATER ST W 19 ANIMAL INVESTIGATION
202182017930 9-23 14:15 1830(1800) BLK FRANCIS AVE 1050 TRAFFIC STOP
202100569702 9-23 14:15 RED EGRET DR 11 ABANDONED VEHICLE
202100569700 9-23 14:15 4700 LENOX AVE 9 THEFT
202100569698 9-23 14:14 8800 BEACH BLVD 76 ASSIST OTHER AGENCY
202192117528 9-23 14:14 2000 3RD ST N 88 ASSAULT
202100569699 9-23 14:14 BEACH BLVD / HUFFMAN BLVD 1 4 CRASH W/IMPAIRED/DRUNK DRIVER
202192117527 9-23 14:11 500 DUVAL STATION RD 56 JUVENILE COMPLAINT
202100569465 9-23 14:09 1000 ST CLAIR ST 21C BURGLARY CONVEYANCE
202100569685 9-23 14:07 MONCRIEF RD / EDGEWOOD AVE W 1050 TRAFFIC STOP
202100569638 9-23 14:07 8300 DAMES POINT CROSSING BLVD 63 DISPUTE
202100569676 9-23 14:06 3100 ST JOHNS AVE 9J THEFT JUST OCCURRED
202192117526 9-23 14:06 2500 BAYVIEW ROAD 61 FIGHT
202100569681 9-23 14:05 5800 NEW KINGS RD 12 RECKLESS DRIVER
202100009590 9-23 14:05 100 U N F DR 96 ASSIST MOTORIST
202100569247 9-23 14:04 5700 UNIVERSITY BLVD W 49 REPORT TO HOSPITAL
202100569677 9-23 14:04 800 JEFFERSON ST N 52 ILLEGAL DUMPING
202100569639 9-23 14:03 5200 NORMANDY BLVD 10 VEHICLE THEFT
202100569674 9-23 14:02 1200 MILLSON RD 11 ABANDONED VEHICLE
202100569237 9-23 14:02 SAN JUAN AVE / HAMILTON ST 91 TRAFFIC LIGHT/RR CROSSING MALFUNCTION
202100569672 9-23 14:00 1600 CASSAT AVE 4 AUTO CRASH
202100569671 9-23 13:59 SUSIE ST / BRANNON AVE 13 SUSPICIOUS PERSON
202100569668 9-23 13:59 APPROX LOC: 8893 LEM TURNER RD 12 RECKLESS DRIVER
202100569666 9-23 13:58 6600 LUCENTE DR 21R BURGLARY RESIDENCE
202100569661 9-23 13:58 JAMMES RD / 103RD ST 1066 CANCEL
202100569660 9-23 13:57 8400 ODEN AVE 63 DISPUTE
202100569665 9-23 13:57 5800 NEW KINGS RD 12 RECKLESS DRIVER
202100569662 9-23 13:56 1700 SAN PABLO RD S 52 ILLEGAL DUMPING
202100569654 9-23 13:55 3000 PARENTAL HOME RD 60 SUICIDE OR ATTEMPT
202100569650 9-23 13:55 8900 6TH AVE 1066 CANCEL
202100569655 9-23 13:54 600 MONUMENT RD 2288 DOMESTIC DISPUTE WITH/ASSAULT
202100569657 9-23 13:54 5800 NEW KINGS RD 12 RECKLESS DRIVER
202100569653 9-23 13:54 600 MONUMENT RD 76 ASSIST OTHER AGENCY
202100569652 9-23 13:53 1000 KIPP AVE 52 ILLEGAL DUMPING
202100569651 9-23 13:53 5800 NEW KINGS RD 38 TRAFFIC ASSIGNMENT
202100569649 9-23 13:52 30TH ST E / BUCKMAN ST 4 AUTO CRASH
202100569635 9-23 13:50 100 ICW ATLANTIC BRG E 16 ROAD OBSTRUCTION
202100569643 9-23 13:50 NORMANDY BLVD / YELLOW WATER RD 4 53 TRAFFIC CRASH PERSON INJURED
202100569645 9-23 13:49 700 LIBERTY ST N 76 ASSIST OTHER AGENCY
202100569631 9-23 13:49 100 KERNAN BLVD N 76 ASSIST OTHER AGENCY
202182017927 9-23 13:48 800 SEMINOLE RD 19 ANIMAL INVESTIGATION
202100569641 9-23 13:47 8900 LEM TURNER RD 12 RECKLESS DRIVER
202100569634 9-23 13:47 3300 DELLWOOD AVE 63 DISPUTE
202100569619 9-23 13:46 6500 BOWDEN RD 4 AUTO CRASH
202100569628 9-23 13:44 BICENTENNIAL DR / NORMANDY BLVD 4 AUTO CRASH
202100569630 9-23 13:43 HERSCHEL ST / EDGEWOOD AVE S 91 TRAFFIC LIGHT/RR CROSSING MALFUNCTION
202100569627 9-23 13:43 1000 DUNN AVE 3 HIT AND RUN CRASH
202100569629 9-23 13:43 5800 NEW KINGS RD 12 RECKLESS DRIVER
202100569626 9-23 13:42 LEM TURN/CLYD 16 ROAD OBSTRUCTION
202100569625 9-23 13:41 10900 BEACH BLVD 13 SUSPICIOUS PERSON
202100569549 9-23 13:40 10900 BEACH BLVD 1066 CANCEL
202100569621 9-23 13:40 2100 LANE AVE N 16 ROAD OBSTRUCTION
202100569431 9-23 13:39 10500 OLD ST AUGUSTINE RD 88 ASSAULT
202100569616 9-23 13:39 8700 LEM TURNER RD 12 RECKLESS DRIVER
202100569591 9-23 13:37 3100 MAIN ST N 63 DISPUTE
202100569608 9-23 13:37 NEWNAN ST N / UNION ST E 6388 DISPUTE WITH ASSAULT
202100569563 9-23 13:36 5300 SPRINGFIELD BLVD 63 DISPUTE
202100569611 9-23 13:35 5600 SOLOMON RD 27 MENTALLY ILL PERSON
202192117523 9-23 13:34 200 MILL ST W 61 FIGHT
202100569606 9-23 13:33 10400 ATLANTIC BLVD 4 AUTO CRASH
202100569607 9-23 13:32 5800 NEW KINGS RD 12 RECKLESS DRIVER
202100569605 9-23 13:32 PROSPECT ST / COMMONWEALTH AVE 10 VEHICLE THEFT
202100569495 9-23 13:31 4400 BLANDING BLVD 9 THEFT
202100569552 9-23 13:31 1000 INDEPENDENCE CT 86T LOST PROPERTY (TELESERVE)
202100569526 9-23 13:30 11200 CHERTSEY LN 63 DISPUTE
202100569597 9-23 13:30 1800 CASSAT AVE 63 DISPUTE
202182017926 9-23 13:30 100 CLUB DR 54 ILLEGALLY PARKED CAR
202100569555 9-23 13:29 1400 32ND ST W 27 MENTALLY ILL PERSON
202100569599 9-23 13:28 APPROX LOC: 8853 LEM TURNER RD 12 RECKLESS DRIVER
202100569596 9-23 13:27 JTB E OFF RAMP / HODGES BLVD 1050 TRAFFIC STOP
202100569583 9-23 13:25 1500 LANDAU RD 22 DOMESTIC
202100569512 9-23 13:25 700 EDGEWOOD AVE N 9J THEFT JUST OCCURRED
202100569592 9-23 13:25 8600 LEM TURNER RD 38 TRAFFIC ASSIGNMENT
202100569585 9-23 13:25 5900 BARTRAM VILLAGE DR 11 ABANDONED VEHICLE
202100569367 9-23 13:24 6200 BEACH BLVD 63 DISPUTE
202100569468 9-23 13:24 4800 PHILIPS HWY 21B BURGLARY BUSINESS
202100569576 9-23 13:24 8500 BAYMEADOWS RD 21B BURGLARY BUSINESS
202100569587 9-23 13:23 2500SJB 1050 TRAFFIC STOP
202100569553 9-23 13:23 10900 BEACH BLVD 63 DISPUTE
202100569586 9-23 13:23 JENNINGS RD / LEM TURNER RD 1050 TRAFFIC STOP
202192117522 9-23 13:22 100 OCEANWAY AVE 17 PERSON DOWN OR SICK
202100569582 9-23 13:22 5800 NEW KINGS RD 12 RECKLESS DRIVER
202100569499 9-23 13:20 2600 UNIVERSITY BLVD N 9T THEFT (TELESERVE)
202100569573 9-23 13:18 3300 20TH ST W 18 PERSON SHOT
202100569574 9-23 13:17 2600 COMMONWEALTH AVE 63 DISPUTE
202100569570 9-23 13:16 1400 ZOO PKWY 38 TRAFFIC ASSIGNMENT
202100569569 9-23 13:15 5600 KERNAN 16 ROAD OBSTRUCTION
202100569567 9-23 13:15 ST JOHNS BLUFF RD S / BEACH BLVD 1050 TRAFFIC STOP
202100569564 9-23 13:14 11900 ATLANTIC BLVD 9 THEFT
202100569565 9-23 13:14 2200 MAYPORT RD 76 ASSIST OTHER AGENCY
202100569521 9-23 13:13 9500 R G SKINNER PKWY 35 OFFICER NEEDS ASSIST
202192117521 9-23 13:13 1700 DAVIS ST N 73 DRUG INVESTIGATION
202100569562 9-23 13:13 5800 NEW KINGS RD 12 RECKLESS DRIVER
202100569546 9-23 13:13 1200 FROMAGE WAY 63 DISPUTE
202100569559 9-23 13:12 800 GOLFAIR BLVD 76 ASSIST OTHER AGENCY
202100569558 9-23 13:12 2700 ST JOHNS BLUFF RD S 4 AUTO CRASH
202100569544 9-23 13:11 TOWN CENTER PKWY / GATE PKWY 68 CON GAME/FLIM FLAM
202100569535 9-23 13:10 200 STATE ST W 63 DISPUTE
202100569557 9-23 13:10 JTB/SAN PABLO 1050 TRAFFIC STOP
202100569556 9-23 13:10 BLANDING BLVD / LAKE GRAY BLVD 96 ASSIST MOTORIST
202100569542 9-23 13:10 LIBERTY ST N / 8TH ST E 3 HIT AND RUN CRASH
202100569554 9-23 13:09 8200 GREEK RD 76 ASSIST OTHER AGENCY
202192117520 9-23 13:08 2400 SAN DIEGO RD 17 PERSON DOWN OR SICK
202100569547 9-23 13:06 500 AIRPORT CENTER 16 ROAD OBSTRUCTION
202100569531 9-23 13:06 8400 BOTTLEBRUSH CT 63 DISPUTE
202100569493 9-23 13:06 6300 SAGE DR 95ID IDENTITY THEFT
202100569541 9-23 13:05 2700 JOHN PROM BLVD 33 DISCHARGING OF FIREARM
202100569452 9-23 13:04 6100 DAWNRIDGE RD S 21R BURGLARY RESIDENCE
202100569539 9-23 13:03 8100 103RD ST 13 SUSPICIOUS PERSON
202100569538 9-23 13:03 2900 DUNN AVE 13 SUSPICIOUS PERSON
202100569532 9-23 13:03 3800 OAK ST 63 DISPUTE
202100569536 9-23 13:02 ARLINGTON RD 38 TRAFFIC ASSIGNMENT
202100569534 9-23 13:02 9100 PHILIPS HWY 38 TRAFFIC ASSIGNMENT
202100569533 9-23 13:02 800 NEWNAN ST N 13 SUSPICIOUS PERSON
202100569530 9-23 13:01 5800 NEW KINGS RD 12 RECKLESS DRIVER
202100569525 9-23 13:01 5500 SMITHTORIAN DR 63 DISPUTE
202100569527 9-23 13:00 4200 PHILIPS HWY 16 ROAD OBSTRUCTION
202100569502 9-23 12:59 11300 SAN JOSE BLVD 22 DOMESTIC
202100569432 9-23 12:58 9000 FAIRGLADE DR N 22 DOMESTIC
202100569518 9-23 12:57 HARBISON ST / MCALLISTER BLVD 76 ASSIST OTHER AGENCY
202100569517 9-23 12:56 JAMMES RD / 103RD ST 4 AUTO CRASH
202100569514 9-23 12:55 4200 SOUTHSIDE BLVD 76 ASSIST OTHER AGENCY
202100569516 9-23 12:55 700 NEWNAN ST N 2 IMPAIRED/INTOXICATED
202100569510 9-23 12:53 700 EDGEWOOD AVE N 0 23IJ ARMED ROBBERY INDIVIDUAL JUST OCCURRED
202100569467 9-23 12:51 7100 WILSON BLVD 22 DOMESTIC
202100569508 9-23 12:51 7000 COLLINS RD. 54 ILLEGALLY PARKED CAR
202100569433 9-23 12:50 EDGEWOOD AVE N / COMMONWEALTH AVE 63 DISPUTE
202100569504 9-23 12:50 7200 MERRILL RD 3 HIT AND RUN CRASH
202100569424 9-23 12:50 8000 MERRILL RD 63 DISPUTE
202100569497 9-23 12:50 800 VIRGINIA ST 4 AUTO CRASH
202100569498 9-23 12:50 3600 RAINES AVE 4 63 CRASH INVOLVING DISPUTE
202100569496 9-23 12:49 2600 DUNN AVE 1050 TRAFFIC STOP
202100569479 9-23 12:47 12100 BEACH BLVD 63 DISPUTE
202100569491 9-23 12:47 7800 LEM TURNER RD 38 TRAFFIC ASSIGNMENT
202100569353 9-23 12:47 5400 NORMANDY BLVD 10R VEHICLE THEFT RECOVERY
202100569489 9-23 12:47 800 N EDGEWOOD 12 RECKLESS DRIVER
202100569421 9-23 12:47 8100 BAYMEADOWS WAY W 63 DISPUTE
202100569488 9-23 12:46 2900 CORTEZ RD 38 TRAFFIC ASSIGNMENT
202100569485 9-23 12:46 I295 S OFF RAMP / WILSON BLVD 1050 TRAFFIC STOP
202100569484 9-23 12:46 800 PRUDENTIAL DR 54 ILLEGALLY PARKED CAR
202100569476 9-23 12:46 900 DILLARD RD 22 DOMESTIC
202100569474 9-23 12:45 5500 UNIVERSITY CLUB BLVD N 22 DOMESTIC
202100569480 9-23 12:44 ADAMS ST W / LAURA ST N 4 AUTO CRASH
202100569460 9-23 12:43 11300 BEACH BLVD 63 DISPUTE
202100569354 9-23 12:43 5600 CAGLE RD 63 DISPUTE
202100569473 9-23 12:42 1100 DUNN AVE 96 ASSIST MOTORIST
202100569472 9-23 12:42 800 PRUDENTIAL DR 54 ILLEGALLY PARKED CAR
202100569463 9-23 12:41 2400 SAN DIEGO RD 22 DOMESTIC
202100569470 9-23 12:41 APPROX LOC: I95 S OFF RAMP / I95 S S 12 RECKLESS DRIVER
202100569469 9-23 12:41 1000 ZOO PKWY 38 TRAFFIC ASSIGNMENT
202100569466 9-23 12:38 GATE PKWY / POINT MEADOWS DR 1050 TRAFFIC STOP
202100569419 9-23 12:37 5700 MAIN ST 9 THEFT
202100569258 9-23 12:36 500 STOCKTON ST 27 MENTALLY ILL PERSON
202100569461 9-23 12:35 4300 ST JOHNS AVE 54 ILLEGALLY PARKED CAR
202192117515 9-23 12:35 2400 SAN DIEGO RD 63 DISPUTE
202100009586 9-23 12:34 100 U N F DR 96 ASSIST MOTORIST
202100569454 9-23 12:33 8500 BAYCENTER RD 76 ASSIST OTHER AGENCY
202100569445 9-23 12:33 4200 PHILIPS HWY 9P THEFT IN PROGRESS
202100569451 9-23 12:32 13300 LANIER RD 76 ASSIST OTHER AGENCY
202182017924 9-23 12:30 700 ATLANTIC BLVD 13 SUSPICIOUS PERSON
202100569447 9-23 12:30 11900 LAKE FERN DR 4 AUTO CRASH
202100569408 9-23 12:29 10200 ATLANTIC BLVD 9J THEFT JUST OCCURRED
202100569395 9-23 12:28 5500 CHRONICLE CT 63 DISPUTE
202100569441 9-23 12:27 4000 PHILIPS HWY 1066 CANCEL
202100569444 9-23 12:27 100 STATE ST W 13 SUSPICIOUS PERSON
202100569392 9-23 12:27 8000 HERLONG RD 63 DISPUTE
202100569442 9-23 12:27 WELLS CREEK PKWY / PHILIPS HWY 16 ROAD OBSTRUCTION
202100569440 9-23 12:26 3000 LANTANA LAKE 87 DAMAGED PROPERTY
202100569217 9-23 12:26 2900 BEAVER ST W 95 FRAUD/FORGED (CHECK, ID, RX)
202100569439 9-23 12:26 800 N EDGEWOOD AVE 50 FOUND/ABANDONED PROPERTY
202100569438 9-23 12:26 1100 DUNN AVE 63 DISPUTE
202100569435 9-23 12:25 12600 SAMPSON RD 76 ASSIST OTHER AGENCY
202100569362 9-23 12:24 7000 POWERS AVENUE 1066 CANCEL
202100569429 9-23 12:22 500 OCEAN ST N 4 AUTO CRASH
202100569426 9-23 12:19 400 PALMETTO ST 13 SUSPICIOUS PERSON
202100569425 9-23 12:19 10100 NEW KINGS RD 16 ROAD OBSTRUCTION
202100569229 9-23 12:19 2300 EMERSON ST 63 DISPUTE
202100569407 9-23 12:18 9400 103RD ST 50 FOUND/ABANDONED PROPERTY
202100569415 9-23 12:16 2500 BAYVIEW RD 50 FOUND/ABANDONED PROPERTY
202100569388 9-23 12:16 6800 NORMANDY BLVD 5582 HOLDING ONE FOR SHOPLIFTING
202100569376 9-23 12:16 1900 VISTA AVE 63 DISPUTE
202100569399 9-23 12:14 2400 FRANKLIN ST 63 DISPUTE
202100569410 9-23 12:14 100 3RD ST W 13 SUSPICIOUS PERSON
202100569393 9-23 12:12 6500 BARTHOLF AVE 9T THEFT (TELESERVE)
202100569240 9-23 12:10 7000 PERKE DR 88 ASSAULT
202100569402 9-23 12:09 OLD ST AUGUSTINE RD / BARTRAM PARK BLVD 16 ROAD OBSTRUCTION
202100569401 9-23 12:09 1900 13TH ST W 4 53 TRAFFIC CRASH PERSON INJURED
202100569212 9-23 12:09 7400 CANAVERAL RD 22 DOMESTIC
202100569398 9-23 12:09 10700 BEACH BLVD 1050 TRAFFIC STOP
202100569378 9-23 12:07 8800 FREE AVE 73 DRUG INVESTIGATION
202100569390 9-23 12:06 2800 ROGERO RD 22 DOMESTIC
202100569394 9-23 12:06 ATL/CENT 1050 TRAFFIC STOP
202100569389 9-23 12:06 I95 EXPY S 96 ASSIST MOTORIST
202100569356 9-23 12:05 13600 LAS BRISAS WAY 54 ILLEGALLY PARKED CAR
202100569104 9-23 12:05 11600 OLD ST AUGUSTINE RD 63 DISPUTE
202100569379 9-23 12:04 9500 PRINCETON SQUARE BLVD S 22 DOMESTIC
202100569297 9-23 12:01 9500 BAYMEADOWS RD 1066 CANCEL
202100569373 9-23 12:00 200 STATE ST E 63 DISPUTE
202100569343 9-23 12:00 100 FULLER WARREN BRG S 13 SUSPICIOUS PERSON
202100569309 9-23 11:56 8500 PINEVERDE LN 19 ANIMAL INVESTIGATION
202192117513 9-23 11:56 2500 BAYVIEW RD 0 ARMED
202100569368 9-23 11:55 8000 CONGAREE CT N 76 ASSIST OTHER AGENCY
202100569369 9-23 11:54 1500 BOULEVARD 13 SUSPICIOUS PERSON
202100569360 9-23 11:52 MERITAGE BLVD / CASSIE LN 4 AUTO CRASH
202100569359 9-23 11:52 GREENLAND RD / PHILIPS HWY 16 ROAD OBSTRUCTION
202100569211 9-23 11:52 8200 HERLONG RD 63 DISPUTE
202100569315 9-23 11:51 600 46TH ST W 27 MENTALLY ILL PERSON
202100569288 9-23 11:50 700 ONTARIO ST 76 ASSIST OTHER AGENCY
202100569351 9-23 11:50 10900 BEACH BLVD 63 DISPUTE
202100569194 9-23 11:49 2500 RICKENBACKER ST 27 MENTALLY ILL PERSON
202100569355 9-23 11:48 9100 2ND AVE 0 60 SUICIDE THREAT W/WEAPON
202100569357 9-23 11:48 3200 KERNAN BLVD S 38 TRAFFIC ASSIGNMENT
202100569323 9-23 11:47 4400 TOUCHTON RD E 22 DOMESTIC
202100569348 9-23 11:47 300 11TH ST W 27 MENTALLY ILL PERSON
202100569338 9-23 11:45 US301 HWY S / US90 HWY W 4 AUTO CRASH
202100569347 9-23 11:45 200 KERNAN BLVD N 52 ILLEGAL DUMPING
202100569344 9-23 11:45 500 MAXWELL RD 10R VEHICLE THEFT RECOVERY
202100569341 9-23 11:44 9800 BEACH BLVD 4 AUTO CRASH
202192117512 9-23 11:44 3700 WINTON DR 3 HIT AND RUN CRASH
202100569317 9-23 11:42 6700 103RD ST 9P THEFT IN PROGRESS
202100569335 9-23 11:42 2600 LARKSPUR AVE 63 DISPUTE
202100009585 9-23 11:41 100 U N F DR 96 ASSIST MOTORIST
202100569337 9-23 11:41 ATLANTIC BLVD / UNIVERSITY BLVD S 1050 TRAFFIC STOP
202100569256 9-23 11:41 1100 TALLEYRAND AVE 63 DISPUTE
202100569298 9-23 11:40 5100 TROUT RIVER BLVD 21C BURGLARY CONVEYANCE
202100569332 9-23 11:38 COLE RD W / DESOTO ST 1050 TRAFFIC STOP
202192117510 9-23 11:38 2000 3RD ST N 88 ASSAULT
202100569299 9-23 11:38 2700 COLLEGE ST 10R VEHICLE THEFT RECOVERY
202100569328 9-23 11:37 4300 MONCRIEF RD W 63 DISPUTE
202182017919 9-23 11:37 100 LEVY RD 13 SUSPICIOUS PERSON
202100569029 9-23 11:37 9500 HISTORIC KINGS RD S 9 THEFT
202100569322 9-23 11:36 200 SAHARA CT N 63 DISPUTE
202100569255 9-23 11:36 ORTEGA BLUFF PKWY / COLLINS RD 13 SUSPICIOUS PERSON
202100569318 9-23 11:36 2200 MAYPORT RD 63 DISPUTE
202100569326 9-23 11:36 8200 PHILIPS 63 DISPUTE
202100569314 9-23 11:35 400 PECAN PARK RD 63 DISPUTE
202100569307 9-23 11:31 7300 LEM TURNER RD 9 THEFT
202100569079 9-23 11:31 3700 CASCADE RD 22 DOMESTIC
202100569293 9-23 11:31 1300 OTTAWA AVE 37 UNVERIFIED 911 CALL
202100569306 9-23 11:29 5400 MAIN ST N 63 DISPUTE
202100569305 9-23 11:28 ROOSEVELT BLVD / YACHT CLUB RD 96 ASSIST MOTORIST
202100569302 9-23 11:28 9900 NEW KINGS RD 4 AUTO CRASH
202100569301 9-23 11:28 5000 GATE PKWY 1066 CANCEL
202100569300 9-23 11:27 800 DUNN AVE 9J THEFT JUST OCCURRED
202100569303 9-23 11:27 4200ATL 1050 TRAFFIC STOP
202100569283 9-23 11:26 300 LAURINA ST 63 DISPUTE
202100569291 9-23 11:26 2000 EDGEWOOD AVE W 95 FRAUD/FORGED (CHECK, ID, RX)
202100569290 9-23 11:25 6300 BEACH BLVD 76 ASSIST OTHER AGENCY
202100569292 9-23 11:23 6300 PHILIPS HWY 38 TRAFFIC ASSIGNMENT
202100569241 9-23 11:21 8400 BLANDING BLVD 63 DISPUTE
202100009583 9-23 11:20 2000 EDGEWOOD AVE W 42 FORGERY/WORTHLESS CHECK
202100569214 9-23 11:19 6900 MAIN ST N 52P ILLEGAL DUMPING IN PROGRESS
202100569282 9-23 11:19 9600 WHITTINGTON DR 54 ILLEGALLY PARKED CAR
202100569284 9-23 11:18 1900 PAINE AVE 63 DISPUTE
202100569287 9-23 11:18 8800 BEACH BLVD 27 MENTALLY ILL PERSON
202100569210 9-23 11:18 8900 3RD AVE 76 ASSIST OTHER AGENCY
202100569285 9-23 11:17 YACHT CLUB RD / ROOSEVELT BLVD 4 AUTO CRASH
202100569155 9-23 11:15 4200 CONFEDERATE POINT RD 9 THEFT
202182017917 9-23 11:15 100 10TH ST 54 ILLEGALLY PARKED CAR
202182017916 9-23 11:15 201(200) BLK MAYPORT RD 1050 TRAFFIC STOP
202100569280 9-23 11:14 JTB EB LANES 38 TRAFFIC ASSIGNMENT
202100569127 9-23 11:14 1000 ST CLAIR ST 22 DOMESTIC
202100569276 9-23 11:13 10700 BEACH BLVD 14BT VANDALISM BUSINESS TELE-SERVE
202182017915 9-23 11:11 951(900) BLK MAYPORT RD 1050 TRAFFIC STOP
202100568743 9-23 11:10 I95 N OFF RAMP / ATLANTIC BLVD 96 ASSIST MOTORIST
202100569269 9-23 11:09 1100 KENDALL TOWN BLVD 52 ILLEGAL DUMPING
202100569268 9-23 11:09 3100 DIVISION ST. 13 SUSPICIOUS PERSON
202100569243 9-23 11:07 10200 RIVER MARSH DR 9T THEFT (TELESERVE)
202100569264 9-23 11:07 400 TALLULAH AVE 38 TRAFFIC ASSIGNMENT
202100569254 9-23 11:05 8800 A C SKINNER PKWY 4 AUTO CRASH
202100569252 9-23 11:05 3000 LANTANA LAKES DR E 7 DEAD PERSON
202100569259 9-23 11:04 ATL/ARLI 1050 TRAFFIC STOP
202100569244 9-23 11:04 3800 PORT JACKSONVILLE PKWY 10R VEHICLE THEFT RECOVERY
202182017914 9-23 11:03 1400 MAYPORT RD 38 TRAFFIC ASSIGNMENT
202100569253 9-23 11:02 6900 WILSON BLVD 4 53 TRAFFIC CRASH PERSON INJURED
202100569250 9-23 11:02 3900 FERRARRA ST 16 ROAD OBSTRUCTION
202100569249 9-23 11:01 MAX LEGGETT PKWY 38 TRAFFIC ASSIGNMENT
202100569069 9-23 10:59 3600 LENOX AVE 95 FRAUD/FORGED (CHECK, ID, RX)
202100569206 9-23 10:58 8800 BELLROSE AVE 13 SUSPICIOUS PERSON
202100569238 9-23 10:57 6600 HUGHES ST 76 ASSIST OTHER AGENCY
202100569208 9-23 10:56 1000 PARK ST 63 DISPUTE
202100569224 9-23 10:56 13400 BEACH BLVD 27 MENTALLY ILL PERSON
202100569063 9-23 10:56 3500 UNIVERSITY BLVD S 63 DISPUTE
202100569232 9-23 10:55 6600 HUGHES ST 26C CARDIAC AED
202100569230 9-23 10:53 SOUTHSIDE CONNECTOR SERVICE RD / MERLEXIT S SSIDE CONN RP 16 ROAD OBSTRUCTION
202100569228 9-23 10:52 7300 ATLANTIC BLVD 1050 TRAFFIC STOP
202100569221 9-23 10:52 4400 SOUTHSIDE BLVD 4 AUTO CRASH
202100569139 9-23 10:51 I10 E OFF RAMP / STOCKTON ST 96 ASSIST MOTORIST
202100568907 9-23 10:51 I295 N ON RAMP / ROOSEVELT BLVD 4 AUTO CRASH
202100569216 9-23 10:50 5400 FERN CREEK DR N 37 UNVERIFIED 911 CALL
202100569220 9-23 10:50 400 SPAULDING RD 1050 TRAFFIC STOP
202100569219 9-23 10:50 11000 PHILIPS HWY 38 TRAFFIC ASSIGNMENT
202100569209 9-23 10:46 COLE RD W / MAIN ST N 1050 TRAFFIC STOP
202100569205 9-23 10:45 8900 LEM TURNER RD 12 RECKLESS DRIVER
202100569201 9-23 10:45 3600 KERNAN BLVD S 9T THEFT (TELESERVE)
202182017910 9-23 10:44 2400 MAYPORT RD 1050 TRAFFIC STOP
202100569202 9-23 10:44 1700 BEAVER ST W 38 TRAFFIC ASSIGNMENT
202100569199 9-23 10:43 5200 SHAD RD 61 FIGHT
202100569195 9-23 10:43 DUNN AVE / MONACO DR 91 TRAFFIC LIGHT/RR CROSSING MALFUNCTION
202100569197 9-23 10:42 I95 S OFF RAMP / BAYMEADOWS RD 1050 TRAFFIC STOP
202100569188 9-23 10:41 6000 NORWOOD AVE 13 SUSPICIOUS PERSON
202100569180 9-23 10:37 12100 LEM TURNER RD 9P THEFT IN PROGRESS
202100569184 9-23 10:36 9700 PHILIPS HWY 38 TRAFFIC ASSIGNMENT
202100568995 9-23 10:35 100 59TH ST E 95ID IDENTITY THEFT
202100569182 9-23 10:34 ATLANTIC BLVD / GIRVIN RD 1050 TRAFFIC STOP
202100569117 9-23 10:34 3300 LOWELL AVE 21R BURGLARY RESIDENCE
202100569181 9-23 10:34 1200 LAKE FOREST BLVD 12 RECKLESS DRIVER
202100569179 9-23 10:33 I95 EXPY S / JTBEXIT S I95 RAMP 1050 TRAFFIC STOP
202100569174 9-23 10:32 FOREST ST / PARK ST 3 53 HIT AND RUN CRASH W/FIRE
202100569162 9-23 10:31 1300 VAN BUREN ST 19 ANIMAL INVESTIGATION
202100569154 9-23 10:31 1900 THELMA ST 63 DISPUTE
202100569172 9-23 10:30 COMMONWEALTH AVE / EDGEWOOD AVE N 1050 TRAFFIC STOP
202100569164 9-23 10:29 4900 BELFORT RD 63 DISPUTE
202100569160 9-23 10:26 MERRILL RD / ROGERO RD 1050 TRAFFIC STOP
202100569159 9-23 10:25 APPROX LOC: 8797 LEM TURNER RD 12 RECKLESS DRIVER
202100569035 9-23 10:25 5200 MONCRIEF RD W 63 DISPUTE
202100569157 9-23 10:24 ATLANTIC BLVD / PECAN ST 1050 TRAFFIC STOP
202100569153 9-23 10:23 100 17TH ST W 13 SUSPICIOUS PERSON
202100569149 9-23 10:22 APPROX LOC:9133 SOUTHSIDE BLVD 1066 CANCEL
202100569114 9-23 10:21 5300 SPRINGFIELD BLVD 21CT BURGLARY CONVEYANCE TELESERVE
202100569152 9-23 10:20 COLLINS RD / BLANDING BLVD 4 AUTO CRASH
202100569147 9-23 10:19 200 COLE RD W 1050 TRAFFIC STOP
202100569144 9-23 10:19 11200 ATLANTIC BLVD 1066 CANCEL
202100569075 9-23 10:17 400 27TH ST W 21CT BURGLARY CONVEYANCE TELESERVE
202182017907 9-23 10:17 1600 BEACH AVE 54 ILLEGALLY PARKED CAR
202100569143 9-23 10:17 8700 LEM TURNER RD 12 RECKLESS DRIVER
202100569100 9-23 10:14 2200 EDGEWOOD AVE W 37 UNVERIFIED 911 CALL
202100569137 9-23 10:14 11400 SAN JOSE BLVD 96 ASSIST MOTORIST
202100569133 9-23 10:14 9800 ARNOLD RD 22 DOMESTIC
202100569134 9-23 10:13 7900 MERRILL RD 21C BURGLARY CONVEYANCE
202100569113 9-23 10:13 5100 FIRESTONE RD 10 VEHICLE THEFT
202100569132 9-23 10:12 CL 1050 TRAFFIC STOP
202100569130 9-23 10:12 2900 MYRTLE AVE N 13 SUSPICIOUS PERSON
202100569054 9-23 10:12 11900 ATLANTIC BLVD 9T THEFT (TELESERVE)
202100569128 9-23 10:11 COLE RD / COLE RD W 1050 TRAFFIC STOP
202100569120 9-23 10:10 POWERS AVE / UNIVERSITY BLVD W 4 AUTO CRASH
202100569115 9-23 10:10 7900 FOLEY CT 21C BURGLARY CONVEYANCE
202100569119 9-23 10:09 4500 LENOX AVE 21BP BURGLARY BUSINESS IN PROGRESS
202100569121 9-23 10:09 ALDEN TRACE BLVD W / ALDEN RD 16 ROAD OBSTRUCTION
202100569124 9-23 10:09 APPROX LOC: 9001 LEM TURNER RD 12 RECKLESS DRIVER
202100568956 9-23 10:08 11200 ENGINEERING WAY 21R BURGLARY RESIDENCE
202100569118 9-23 10:07 4000 TOWN CENTER PKWY 4 AUTO CRASH
202100569004 9-23 10:07 2100 13TH ST W 63 DISPUTE
202100569116 9-23 10:06 12900 PECAN PARK RD 54 ILLEGALLY PARKED CAR
202100569108 9-23 10:05 8200 PHILIPS HWY 63 DISPUTE
202100569094 9-23 10:05 1200 HAINES ST 9 THEFT
202100569112 9-23 10:04 I295 N OFF RAMP / HECKSCHER DR 12 RECKLESS DRIVER
202100569111 9-23 10:04 NEW BERLIN RD / MAIN ST N 1050 TRAFFIC STOP
202100569033 9-23 10:04 8300 OLD KINGS RD S 7 DEAD PERSON
202100569102 9-23 10:02 11800 ALDEN RD 1066 CANCEL